Regional Weather Roundup
Issued by NWS

Home | Current Version | Previous Version | Graphics & Text | Print | Product List | Glossary On
Versions: 1 2 3 4 5 6 7 8 9 10 11 12 13 14 15 16 17 18 19 20 21 22 23 24 25 26 27 28 29 30 31 32 33 34 35 36 37 38 39 40 41 42 43 44 45 46 47 48 49 50
112
ASUS43 KBIS 272310
RWRND

NORTH DAKOTA REGIONAL WEATHER ROUNDUP
NATIONAL WEATHER SERVICE BISMARCK ND
600 PM CDT FRI MAY 27 2016

NOTE: "FAIR" INDICATES FEW OR NO CLOUDS BELOW 12,000 FEET WITH NO
SIGNIFICANT WEATHER AND/OR OBSTRUCTIONS TO VISIBILITY.


NDZ001>003-009>011-017-280000-
NORTHWEST NORTH DAKOTA

CITY           SKY/WX    TMP DP  RH WIND       PRES   REMARKS
WILLISTON      CLOUDY    65  50  58 E9        29.83S
MINOT          PTSUNNY   69  50  50 E5        29.80F
MINOT AFB      CLOUDY    67  51  57 NE14      29.79F
$$

NDZ018>021-031>035-040>046-280000-
SOUTHWEST NORTH DAKOTA

CITY           SKY/WX    TMP DP  RH WIND       PRES   REMARKS
BISMARCK       MOSUNNY   70  46  42 CALM      29.79F
DICKINSON      CLOUDY    65  42  43 E7        29.79F
GARRISON         N/A     65  51  60 VRB3      29.80F
HETTINGER ARPT CLOUDY    65  47  52 S7        29.83S
$$

NDZ004>008-012>016-024-026-027-054-280000-
NORTHEAST NORTH DAKOTA

CITY           SKY/WX    TMP DP  RH WIND       PRES   REMARKS
GRAND FORKS    CLOUDY    75  53  46 N7        29.75F
GRND FRKS AFB  PTSUNNY   72  51  48 NE7       29.77F
DEVILS LAKE    SUNNY     70  50  49 NW9       29.80S
$$

NDZ022-023-025-028>030-036>039-047>053-280000-
SOUTHEAST NORTH DAKOTA

CITY           SKY/WX    TMP DP  RH WIND       PRES   REMARKS
FARGO          LGT RAIN  62  59  90 NW3       29.77R
JAMESTOWN      CLOUDY    70  50  49 NW5       29.77F
$$





USA.gov is the U.S. government's official web portal to all federal, state and local government web resources and services.